This demonstration page uses our WeatherBlox Daily Observations layout. Learn more.

39.92423, -83.80882

Hourly Observations for September 8, 2020

Temp ( °F °C ) Dew Point ( °F °C ) Humidity (%) Winds ( mph kmh ) Pressure ( in mb ) Visibility ( mi km ) Precip ( " mm )
12:56 am 00:56 Cloudy 69 20.6 69 20.6 100 100 ESE 7 11 30 1016 10 16.0934 0 0
1:56 am 01:56 Mostly Cloudy 69 20.6 69 20.6 100 100 NE 9 15 30.02 1017 10 16.0934 0 0
2:56 am 02:56 Cloudy 68 20 68 20 100 100 E 8 13 30.01 1016 10 16.0934 0 0
3:56 am 03:56 Partly Cloudy 66 18.9 66 18.9 100 100 E 7 11 30 1016 10 16.0934 0 0
4:56 am 04:56 Clear 65 18.3 65 18.3 100 100 ESE 6 9 30.01 1016 10 16.0934 0 0
5:56 am 05:56 Clear 65 18.3 65 18.3 100 100 SSE 6 9 30.01 1016 10 16.0934 0 0
6:56 am 06:56 Clear 64 17.8 64 17.8 100 100 SE 5 7 30.03 1017 10 16.0934 0 0
7:56 am 07:56 Sunny 65 18.3 65 18.3 100 100 SSE 6 9 30.05 1018 10 16.0934 0 0
8:56 am 08:56 Sunny 70 21.1 68 20 93 93 S 7 11 30.05 1018 10 16.0934 0 0
9:56 am 09:56 Sunny 75 23.9 68 20 79 79 SW 8 13 30.06 1018 10 16.0934 0 0
10:56 am 10:56 Sunny 79 26.1 69 20.6 72 72 W 7 11 30.09 1019 10 16.0934 0 0
11:56 am 11:56 Sunny 81 27.2 69 20.6 67 67 SW 8 13 30.09 1019 10 16.0934 0 0
12:56 pm 12:56 Sunny 84 28.9 69 20.6 61 61 VRB 3 6 30.08 1019 10 16.0934 0 0
1:56 pm 13:56 Mostly Sunny 86 30 69 20.6 57 57 SSW 6 9 30.06 1018 10 16.0934 0 0
2:56 pm 14:56 Sunny 85 29.4 69 20.6 59 59 S 6 9 30.04 1017 10 16.0934 0 0
3:56 pm 15:56 Sunny 85 29.4 68 20 57 57 SSE 7 11 30.04 1017 10 16.0934 0 0
4:56 pm 16:56 Mostly Sunny 86 30 69 20.6 57 57 S 7 11 30.04 1017 10 16.0934 0 0
5:56 pm 17:56 Sunny 84 28.9 69 20.6 61 61 S 8 13 30.04 1017 10 16.0934 0 0
6:56 pm 18:56 Sunny 82 27.8 69 20.6 65 65 SSE 7 11 30.06 1018 10 16.0934 0 0
7:56 pm 19:56 Clear 78 25.6 69 20.6 74 74 S 6 9 30.05 1018 10 16.0934 0 0
8:56 pm 20:56 Clear 73 22.8 68 20 84 84 SSE 6 9 30.08 1019 10 16.0934 0 0
9:56 pm 21:56 Clear 69 20.6 68 20 96 96 ESE 3 6 30.09 1019 10 16.0934 0 0
10:56 pm 22:56 Clear 66 18.9 66 18.9 100 100 ESE 6 9 30.1 1019 10 16.0934 0 0
11:56 pm 23:56 Clear 66 18.9 66 18.9 100 100 SE 5 7 30.12 1020 10 16.0934 0 0

Powered by AerisWeather